Location: Roanoke
(37.2710°N, 79.9420°W)
Time: 16:39:16
(UTC-04:00)

Cosmos 1441 Rocket - Visible Passes

Search period start: 06 May 2016 00:00
Search period end: 16 May 2016 00:00
Orbit: 501 x 545 km, 81.1° (Epoch: 05 May)

Date Brightness Start Highest point End Pass type
(mag) Time Alt. Az. Time Alt. Az. Time Alt. Az.
06 May 3.3 05:13:29 13° SSW 05:16:59 63° W 05:20:58 10° N visible
07 May 3.2 05:01:18 18° SSW 05:04:12 72° W 05:08:13 10° N visible
08 May 3.2 04:49:03 23° SSW 04:51:26 82° WNW 04:55:27 10° N visible
09 May 3.2 04:36:46 30° S 04:38:39 87° E 04:42:40 10° N visible
10 May 3.3 04:24:26 38° S 04:25:53 77° E 04:29:53 10° NNE visible
11 May 3.5 04:12:04 46° SSE 04:13:06 67° E 04:17:05 10° NNE visible
12 May 3.7 03:59:40 51° SE 04:00:19 59° E 04:04:17 10° NNE visible
13 May 3.8 03:47:15 50° ESE 03:47:33 51° E 03:51:27 10° NNE visible
13 May 5.6 05:23:46 10° WNW 05:23:53 10° WNW 05:24:00 10° WNW visible
14 May 4.1 03:34:48 45° E 03:34:48 45° E 03:38:37 10° NNE visible
14 May 5.5 05:09:58 10° W 05:11:03 11° WNW 05:12:22 10° NW visible
15 May 4.4 03:22:19 39° E 03:22:19 39° E 03:25:46 10° NNE visible
15 May 5.4 04:57:29 12° W 04:58:12 13° WNW 05:00:03 10° NW visible
